Regional Weather Roundup
Issued by NWS

Home | Current Version | Previous Version | Graphics & Text | Print | Product List | Glossary On
Versions: 1 2 3 4 5 6 7 8 9 10 11 12 13 14 15 16 17 18 19 20 21 22 23 24 25 26 27 28 29 30 31 32 33 34 35 36 37 38 39 40 41 42 43 44 45 46 47 48 49 50
000
ASUS44 KMEG 210310
RWRTN
TENNESSEE HOURLY STATE WEATHER ROUNDUP
NATIONAL WEATHER SERVICE MEMPHIS TN
900 PM CST SAT JAN 20 2018

TNZ002-004-019-021-049-052-054-088>092-210400-
WEST TENNESSEE

CITY           SKY/WX    TMP DP  RH WIND       PRES   REMARKS
MEMPHIS INTL   MOCLDY    54  50  86 S7        30.11F
NWS MEMPHIS      N/A     55 N/A N/A MISG        N/A
JACKSON        MOCLDY    55  44  66 S8        30.11F
DYERSBURG      MOCLDY    52  48  86 S6        30.10F
SOMERVILLE     CLOUDY    57  50  77 S6        30.10F
COVINGTON      CLOUDY    52  48  87 S7        30.10F
UNION CITY     CLOUDY    48  45  87 S7        30.09F
BOLIVAR        MOCLDY    55  43  62 SE7       30.12F
PARIS          CLOUDY    48  43  81 S8        30.10F
HUNTINGDON     CLOUDY    50  45  81 S6        30.10F
LEXINGTON      CLOUDY    59  39  47 S10       30.14S
SELMER         MOCLDY    57  37  47 S12G17    30.14S
SAVANNAH       MOCLDY    57  39  51 S10       30.14F
$$

TNZ008-025-027-028-033-062-065-066-210400-
NORTH MIDDLE TENNESSEE

CITY           SKY/WX    TMP DP  RH WIND       PRES   REMARKS
NASHVILLE      MOCLDY    55  37  50 S9        30.17S
PORTLAND       PTCLDY    52  37  58 S9        30.14S
CLARKSVILLE    CLOUDY    55  42  61 S12       30.13R
SMYRNA         CLOUDY    52  37  56 S6        30.19S
COOKEVILLE     MOCLDY    45  34  65 S6        30.19F
GALLATIN       CLOUDY    57  36  44 S9        30.18F
CROSSVILLE     FAIR      45  31  58 SW3       30.22R
$$

TNZ061-075-076-078-094-096-097-210400-
SOUTH MIDDLE TENNESSEE

CITY           SKY/WX    TMP DP  RH WIND       PRES   REMARKS
FAYETTEVILLE   CLEAR     52  36  54 S9        30.19F
TULLAHOMA      CLEAR     39  30  70 CALM      30.20S
WINCHESTER     CLEAR     41  32  70 SE5       30.22S
MCMINNVILLE    CLEAR     37  32  81 CALM      30.20F
COLUMBIA       MOCLDY    57  37  47 S8G15     30.15S
SHELBYVILLE    PTCLDY    46  36  66 CALM      30.20R
$$

TNZ017-018-042-046-047-210400-
NORTHEAST TENNESSEE

CITY           SKY/WX    TMP DP  RH WIND       PRES   REMARKS
TRI CITIES     CLOUDY    41  35  79 CALM      30.23S
ELIZABETHTON   CLOUDY    39  36  87 CALM      30.24R
$$

TNZ012-013-036-069-073-074-210400-
CENTRAL EAST TENNESSEE

CITY           SKY/WX    TMP DP  RH WIND       PRES   REMARKS
KNOXVILLE      FAIR      44  36  73 S3        30.22S
OAK RIDGE      FAIR      37  33  85 CALM      30.24S
DOWNTOWN KNOXV CLEAR     34  32  93 CALM      30.24S
GATLINBURG     PTCLDY    43  37  81 CALM      30.23S
MORRISTOWN     CLOUDY    39  32  75 CALM      30.23S
JACKSBORO      CLEAR     37  34  87 CALM      30.26S
$$

TNZ083-085-099-210400-
SOUTHEAST TENNESSEE

CITY           SKY/WX    TMP DP  RH WIND       PRES   REMARKS
CHATTANOOGA    FAIR      42  34  73 CALM      30.24S
DAYTON         CLEAR     37  36  93 CALM      30.23R
$$

SKY/WX REPORTED AS FAIR MEANS FEW OR NO CLOUDS BELOW
12 THOUSAND FEET.





USA.gov is the U.S. government's official web portal to all federal, state and local government web resources and services.